DW2802 Ogijares ES current weather conditions

sailwx.info

Wind from 355

Air temperature 16.7° C
Dewpoint 11.8° C

Last reported at 2018-Jun-22 04:57 UTC.
Time now 2018-Jun-22 05:24 UTC

Location: N 37°07' W 003°36'.
View on Google Maps.

See reports from other nearby stations

  
Tides and Currents Weather Stations Pressure Air Temp Water Temp Dewpoint Dewpoint Depression Visibility Wind Speed Wind Dir Waves Ship Positions
date/time (UTC)wind fromknots sea level pressurealtimeterstation pressurevisibilityair tempwater tempwave heightnotes
2018-Jun-22 04:57 355 16.7
2018-Jun-22 04:42 355 17.2
2018-Jun-22 04:27 355 17.2
2018-Jun-22 04:12 355 17.2
2018-Jun-22 03:57 355 17.8
2018-Jun-22 03:42 355 17.2
2018-Jun-22 03:27 355 17.8
2018-Jun-22 03:12 355 18.3
2018-Jun-22 02:57 355 18.3
2018-Jun-22 02:42 355 18.9
2018-Jun-22 02:27 355 18.9
2018-Jun-22 02:12 355 18.3
2018-Jun-22 01:57 355 18.9
2018-Jun-22 01:42 355 18.9
2018-Jun-22 01:27 355 18.9
2018-Jun-22 01:11 355 18.9
2018-Jun-22 00:56 355 19.4
2018-Jun-22 00:41 355 19.4
2018-Jun-22 00:26 355 19.4
2018-Jun-22 00:11 355 20.6
2018-Jun-21 23:56 355 20.6
2018-Jun-21 23:41 355 20.6
2018-Jun-21 23:26 355 20.6
2018-Jun-21 23:11 355 20.6
2018-Jun-21 22:56 355 21.1
2018-Jun-21 22:41 355 21.1
2018-Jun-21 22:26 355 21.1
2018-Jun-21 22:11 355 21.7
2018-Jun-21 21:56 346 22.2
2018-Jun-21 21:41 342 23.3
2018-Jun-21 21:26 342 23.3
2018-Jun-21 21:11 342 0 gusting 4 23.3
2018-Jun-21 20:56 291 23.3
2018-Jun-21 20:41 276 3 gusting 6 23.9
2018-Jun-21 20:26 227 2 gusting 4 23.9
2018-Jun-21 20:11 231 23.9
2018-Jun-21 19:56 231 24.4
2018-Jun-21 19:41 231 24.4
2018-Jun-21 19:26 231 2 gusting 4 25.0
2018-Jun-21 19:11 232 3 gusting 6 26.1
2018-Jun-21 18:56 198 2 gusting 6 26.7
2018-Jun-21 18:41 160 5 gusting 9 26.7
2018-Jun-21 18:26 154 4 gusting 10 27.2
2018-Jun-21 18:11 157 5 gusting 11 27.8
2018-Jun-21 17:56 178 3 gusting 7 28.3
2018-Jun-21 17:41 200 5 gusting 9 28.3
2018-Jun-21 17:26 192 3 gusting 8 29.4
2018-Jun-21 17:11 185 4 gusting 8 28.9
2018-Jun-21 16:56 165 3 gusting 13 28.3
2018-Jun-21 16:41 149 5 gusting 13 28.9
2018-Jun-21 16:26 171 6 gusting 11 28.9
2018-Jun-21 16:11 161 8 gusting 13 28.9
2018-Jun-21 15:56 194 6 gusting 13 29.4
2018-Jun-21 15:41 189 6 gusting 12 29.4
2018-Jun-21 15:26 175 5 gusting 12 29.4
2018-Jun-21 15:11 171 6 gusting 12 29.4
2018-Jun-21 14:56 217 7 gusting 13 29.4
2018-Jun-21 14:41 192 6 gusting 20 28.9
2018-Jun-21 14:26 257 7 gusting 12 29.4
2018-Jun-21 14:11 265 7 gusting 12 29.4
2018-Jun-21 13:56 238 4 gusting 10 28.9
2018-Jun-21 13:41 211 4 gusting 9 28.9
2018-Jun-21 13:26 213 3 gusting 8 28.9
2018-Jun-21 13:10 284 1 gusting 9 29.4
2018-Jun-21 12:55 121 0 gusting 3 28.3
2018-Jun-21 12:40 191 2 gusting 6 27.8
2018-Jun-21 12:25 197 2 gusting 9 27.8
2018-Jun-21 12:10 286 3 gusting 7 27.8
2018-Jun-21 11:55 294 3 gusting 6 27.8
2018-Jun-21 11:40 266 3 gusting 8 26.7
2018-Jun-21 11:25 268 4 gusting 7 27.8
2018-Jun-21 11:10 302 0 gusting 8 27.2
2018-Jun-21 10:55 283 26.7
2018-Jun-21 10:40 313 0 gusting 4 26.1
2018-Jun-21 10:25 296 3 gusting 7 25.6
2018-Jun-21 10:10 319 0 gusting 7 25.6
2018-Jun-21 09:55 325 1 gusting 8 25.6
2018-Jun-21 09:40 348 0 gusting 5 25.6
2018-Jun-21 09:25 092 25.0
2018-Jun-21 09:10 092 24.4
2018-Jun-21 08:54 100 23.9
2018-Jun-21 08:39 100 22.8
2018-Jun-21 08:24 100 0 gusting 3 22.2
2018-Jun-21 08:09 100 22.8
2018-Jun-21 07:39 101 21.7
2018-Jun-21 07:24 101 21.1
2018-Jun-21 07:09 102 0 gusting 2 20.6
2018-Jun-21 06:54 102 20.0
2018-Jun-21 06:39 115 1 gusting 5 20.0
2018-Jun-21 06:24 174 20.0
2018-Jun-21 06:09 178 18.9
2018-Jun-21 05:54 178 18.3
2018-Jun-21 05:39 178 17.8
2018-Jun-21 05:23 178 17.2
2018-Jun-21 05:08 178 17.2
2018-Jun-21 04:53 178 17.2
2018-Jun-21 04:38 178 17.2
2018-Jun-21 04:23 178 17.8
2018-Jun-21 04:08 179 18.3
2018-Jun-21 03:53 179 17.8
2018-Jun-21 03:38 180 17.8
2018-Jun-21 03:23 180 17.8
2018-Jun-21 03:08 180 18.3
2018-Jun-21 02:53 165 3 gusting 5 18.3
2018-Jun-21 02:38 163 18.3
2018-Jun-21 02:23 163 18.3
2018-Jun-21 02:08 163 18.9
2018-Jun-21 01:53 163 19.4
2018-Jun-21 01:38 163 19.4
2018-Jun-21 01:23 163 19.4
2018-Jun-21 01:08 163 20.0
2018-Jun-21 00:53 163 20.0
2018-Jun-21 00:50 163 20.0
2018-Jun-21 00:23 163 20.0
2018-Jun-21 00:08 163 20.0
2018-Jun-20 23:53 163 20.0
2018-Jun-20 23:38 163 20.6
2018-Jun-20 23:23 163 1 gusting 7 20.6
2018-Jun-20 23:08 172 2 gusting 4 20.6
2018-Jun-20 22:53 182 1 gusting 4 20.6
2018-Jun-20 22:38 192 21.1
2018-Jun-20 22:23 192 21.7
2018-Jun-20 22:08 192 22.2
2018-Jun-20 21:53 192 22.2
2018-Jun-20 21:38 192 22.2
2018-Jun-20 21:23 192 22.8
2018-Jun-20 21:08 192 22.8
2018-Jun-20 20:53 192 22.8
2018-Jun-20 20:38 192 22.8
2018-Jun-20 20:23 194 1 gusting 4 23.3
2018-Jun-20 20:08 196 1 gusting 6 23.9
2018-Jun-20 19:53 192 4 gusting 6 24.4
2018-Jun-20 19:38 195 3 gusting 7 25.0
2018-Jun-20 19:22 190 3 gusting 6 25.6
2018-Jun-20 19:07 162 4 gusting 10 26.1
2018-Jun-20 18:53 180 7 gusting 11 26.7
2018-Jun-20 18:37 161 3 gusting 13 27.2
2018-Jun-20 18:22 211 4 gusting 11 27.2
2018-Jun-20 18:07 188 7 gusting 12 27.2
2018-Jun-20 17:52 202 7 gusting 15 27.8
2018-Jun-20 17:37 185 7 gusting 18 27.8
2018-Jun-20 17:22 170 6 gusting 14 28.3
2018-Jun-20 17:07 189 6 gusting 13 28.3
2018-Jun-20 16:52 148 6 gusting 13 28.9
2018-Jun-20 16:37 171 6 gusting 12 28.9
2018-Jun-20 16:22 198 6 gusting 14 28.9
2018-Jun-20 16:07 215 8 gusting 15 28.9
2018-Jun-20 15:52 178 8 gusting 15 28.9
2018-Jun-20 15:37 192 8 gusting 13 29.4
2018-Jun-20 15:22 150 7 gusting 13 29.4
2018-Jun-20 15:07 183 3 gusting 12 29.4
2018-Jun-20 14:52 157 6 gusting 12 29.4
2018-Jun-20 14:37 227 6 gusting 13 29.4
2018-Jun-20 14:22 202 6 gusting 13 29.4
2018-Jun-20 14:07 163 5 gusting 9 29.4
2018-Jun-20 13:52 150 3 gusting 10 28.9
2018-Jun-20 13:37 182 5 gusting 10 28.9
2018-Jun-20 13:22 171 4 gusting 12 28.9
2018-Jun-20 13:07 179 5 gusting 12 28.9
2018-Jun-20 12:52 232 6 gusting 10 28.3
2018-Jun-20 12:37 172 4 gusting 8 28.3
2018-Jun-20 12:22 205 4 gusting 8 28.3
2018-Jun-20 12:07 231 2 gusting 6 28.3
2018-Jun-20 11:52 222 2 gusting 6 27.8
2018-Jun-20 11:37 347 0 gusting 4 27.2
2018-Jun-20 11:22 273 1 gusting 7 26.7
2018-Jun-20 11:06 250 0 gusting 6 26.1
2018-Jun-20 10:51 245 2 gusting 6 25.6
2018-Jun-20 10:36 207 1 gusting 6 25.6
2018-Jun-20 10:21 174 25.6
2018-Jun-20 10:06 207 0 gusting 2 25.0
2018-Jun-20 09:51 209 1 gusting 5 23.9
2018-Jun-20 09:36 221 1 gusting 4 23.9
2018-Jun-20 09:21 221 23.9
2018-Jun-20 09:06 212 2 gusting 5 23.3
2018-Jun-20 08:51 146 23.9
2018-Jun-20 08:36 155 23.3
2018-Jun-20 08:21 167 22.8
2018-Jun-20 08:06 167 22.2
2018-Jun-20 07:51 167 22.8
2018-Jun-20 07:35 167 22.2
2018-Jun-20 07:20 167 21.1
2018-Jun-20 07:05 167 20.6
2018-Jun-20 06:50 167 20.0
2018-Jun-20 06:35 167 19.4
2018-Jun-20 06:20 167 18.9
2018-Jun-20 06:05 167 17.8
2018-Jun-20 05:50 167 17.2
2018-Jun-20 05:35 167 16.7
2018-Jun-20 05:20 167 16.7
2018-Jun-20 05:05 167 16.7